Tiempo cada hora Barrinha

Hoy, 25 Junio, Viernes

Tiempo Temperatura Precipitaciones Viento Presión Humedad
00:00 +20°C° 0 mm 1 mps 717 mmHg 57%
01:00 +19°C° 0 mm 1 mps 717 mmHg 58%
02:00 +19°C° 0 mm 1 mps 717 mmHg 59%
03:00 +19°C° 0 mm 1 mps 717 mmHg 61%
04:00 +18°C° 0 mm 1 mps 717 mmHg 62%
05:00 +18°C° 0 mm 1 mps 717 mmHg 63%
06:00 +18°C° 0 mm 1 mps 717 mmHg 64%
07:00 +20°C° 0 mm 1 mps 718 mmHg 57%
08:00 +22°C° 0 mm 1 mps 718 mmHg 50%
09:00 +25°C° 0 mm 1 mps 719 mmHg 43%
10:00 +27°C° 0 mm 1 mps 719 mmHg 38%
11:00 +30°C° 0 mm 1 mps 719 mmHg 33%
12:00 +32°C° 0 mm 1 mps 719 mmHg 27%
13:00 +33°C° 0 mm 1 mps 718 mmHg 26%
14:00 +33°C° 0 mm 1 mps 718 mmHg 25%
15:00 +32°C° 0 mm 0 mps 717 mmHg 24%
16:00 +29°C° 0 mm 0 mps 717 mmHg 29%
17:00 +28°C° 0 mm 1 mps 717 mmHg 33%
18:00 +26°C° 0 mm 1 mps 717 mmHg 38%
19:00 +25°C° 0 mm 1 mps 717 mmHg 40%
20:00 +24°C° 0 mm 1 mps 717 mmHg 43%
21:00 +23°C° 0 mm 1 mps 718 mmHg 45%
22:00 +22°C° 0 mm 1 mps 718 mmHg 47%
23:00 +21°C° 0 mm 2 mps 717 mmHg 49%

Mañana, 26 Junio, Sábado

Tiempo Temperatura Precipitaciones Viento Presión Humedad
00:00 +20°C° 0 mm 2 mps 717 mmHg 51%
01:00 +20°C° 0 mm 2 mps 717 mmHg 53%
02:00 +19°C° 0 mm 2 mps 717 mmHg 55%
03:00 +19°C° 0 mm 2 mps 717 mmHg 57%
04:00 +18°C° 0 mm 2 mps 717 mmHg 58%
05:00 +18°C° 0 mm 2 mps 717 mmHg 59%
06:00 +18°C° 0 mm 2 mps 717 mmHg 59%
07:00 +20°C° 0 mm 2 mps 718 mmHg 54%
08:00 +22°C° 0 mm 3 mps 719 mmHg 49%
09:00 +25°C° 0 mm 3 mps 719 mmHg 44%
10:00 +27°C° 0 mm 3 mps 719 mmHg 38%
11:00 +29°C° 0 mm 3 mps 719 mmHg 33%
12:00 +33°C° 0 mm 3 mps 719 mmHg 28%
13:00 +33°C° 0 mm 3 mps 718 mmHg 26%
14:00 +34°C° 0 mm 3 mps 718 mmHg 24%
15:00 +34°C° 0 mm 2 mps 717 mmHg 23%
16:00 +31°C° 0 mm 2 mps 717 mmHg 26%
17:00 +28°C° 0 mm 2 mps 716 mmHg 30%
18:00 +26°C° 0 mm 2 mps 716 mmHg 34%
19:00 +25°C° 0 mm 2 mps 717 mmHg 37%
20:00 +24°C° 0 mm 2 mps 717 mmHg 41%
21:00 +22°C° 0 mm 1 mps 717 mmHg 44%
22:00 +22°C° 0 mm 1 mps 717 mmHg 47%
23:00 +21°C° 0 mm 1 mps 717 mmHg 49%

Pasado mañana, 27 Junio, Domingo

Tiempo Temperatura Precipitaciones Viento Presión Humedad
00:00 +21°C° 0 mm 1 mps 717 mmHg 52%
01:00 +20°C° 0 mm 1 mps 717 mmHg 54%
02:00 +20°C° 0 mm 1 mps 717 mmHg 55%
03:00 +19°C° 0 mm 1 mps 717 mmHg 57%
04:00 +19°C° 0 mm 1 mps 717 mmHg 59%
05:00 +18°C° 0 mm 1 mps 717 mmHg 62%
06:00 +16°C° 0 mm 1 mps 718 mmHg 64%
07:00 +18°C° 0 mm 2 mps 718 mmHg 56%
08:00 +20°C° 0 mm 3 mps 719 mmHg 48%
09:00 +22°C° 0 mm 3 mps 719 mmHg 41%
10:00 +26°C° 0 mm 3 mps 719 mmHg 35%
11:00 +28°C° 0 mm 3 mps 719 mmHg 29%
12:00 +31°C° 0 mm 3 mps 719 mmHg 23%
13:00 +31°C° 0 mm 3 mps 718 mmHg 21%
14:00 +33°C° 0 mm 3 mps 717 mmHg 20%
15:00 +33°C° 0 mm 3 mps 717 mmHg 18%
16:00 +30°C° 0 mm 2 mps 717 mmHg 22%
17:00 +27°C° 0 mm 2 mps 717 mmHg 26%
18:00 +24°C° 0 mm 1 mps 716 mmHg 30%
19:00 +23°C° 0 mm 1 mps 717 mmHg 32%
20:00 +22°C° 0 mm 1 mps 717 mmHg 34%
21:00 +21°C° 0 mm 1 mps 717 mmHg 36%
22:00 +21°C° 0 mm 1 mps 718 mmHg 38%
23:00 +20°C° 0 mm 1 mps 718 mmHg 40%

28 Junio, Lunes

Tiempo Temperatura Precipitaciones Viento Presión Humedad
00:00 +19°C° 0 mm 1 mps 718 mmHg 42%
01:00 +19°C° 0 mm 1 mps 718 mmHg 44%
02:00 +18°C° 0 mm 1 mps 718 mmHg 46%
03:00 +18°C° 0 mm 1 mps 717 mmHg 48%
04:00 +16°C° 0 mm 1 mps 718 mmHg 51%
05:00 +16°C° 0 mm 1 mps 718 mmHg 53%
06:00 +15°C° 0 mm 1 mps 718 mmHg 55%
07:00 +19°C° 0 mm 1 mps 719 mmHg 50%
08:00 +20°C° 0 mm 2 mps 719 mmHg 45%
09:00 +23°C° 0 mm 2 mps 720 mmHg 39%
10:00 +25°C° 0 mm 2 mps 720 mmHg 35%
11:00 +28°C° 0 mm 2 mps 720 mmHg 30%
12:00 +30°C° 0 mm 3 mps 720 mmHg 25%
13:00 +31°C° 0 mm 3 mps 719 mmHg 24%
14:00 +31°C° 0 mm 3 mps 719 mmHg 23%
15:00 +32°C° 0 mm 2 mps 718 mmHg 22%
16:00 +29°C° 0 mm 2 mps 718 mmHg 28%
17:00 +27°C° 0 mm 2 mps 718 mmHg 33%
18:00 +24°C° 0 mm 2 mps 718 mmHg 39%
19:00 +23°C° 0 mm 2 mps 719 mmHg 46%
20:00 +21°C° 0 mm 3 mps 719 mmHg 53%
21:00 +19°C° 0 mm 3 mps 720 mmHg 60%
22:00 +18°C° 0 mm 3 mps 720 mmHg 67%
23:00 +17°C° 0 mm 2 mps 720 mmHg 73%

29 Junio, Martes

Tiempo Temperatura Precipitaciones Viento Presión Humedad
00:00 +16°C° 0 mm 2 mps 720 mmHg 79%
01:00 +15°C° 0 mm 2 mps 720 mmHg 83%
02:00 +14°C° 0 mm 2 mps 720 mmHg 87%
03:00 +13°C° 0 mm 1 mps 720 mmHg 90%
04:00 +13°C° 0 mm 1 mps 720 mmHg 91%
05:00 +12°C° 0 mm 1 mps 720 mmHg 91%
06:00 +12°C° 0 mm 1 mps 720 mmHg 92%
07:00 +14°C° 0 mm 1 mps 721 mmHg 83%
08:00 +16°C° 0 mm 1 mps 721 mmHg 74%
09:00 +17°C° 0 mm 0 mps 722 mmHg 66%
10:00 +21°C° 0 mm 1 mps 722 mmHg 58%
11:00 +24°C° 0 mm 1 mps 722 mmHg 50%
12:00 +26°C° 0 mm 2 mps 722 mmHg 43%
13:00 +27°C° 0 mm 2 mps 721 mmHg 40%
14:00 +27°C° 0 mm 2 mps 720 mmHg 37%
15:00 +28°C° 0 mm 3 mps 720 mmHg 34%
16:00 +26°C° 0 mm 3 mps 720 mmHg 38%
17:00 +24°C° 0 mm 3 mps 720 mmHg 41%
18:00 +21°C° 0 mm 3 mps 720 mmHg 45%
19:00 +20°C° 0 mm 3 mps 720 mmHg 48%
20:00 +19°C° 0 mm 4 mps 721 mmHg 51%
21:00 +18°C° 0 mm 4 mps 721 mmHg 54%
22:00 +17°C° 0 mm 3 mps 721 mmHg 55%
23:00 +16°C° 0 mm 3 mps 721 mmHg 55%

30 Junio, Miércoles

Tiempo Temperatura Precipitaciones Viento Presión Humedad
00:00 +16°C° 0 mm 2 mps 721 mmHg 56%
01:00 +15°C° 0 mm 2 mps 721 mmHg 59%
02:00 +14°C° 0 mm 1 mps 721 mmHg 62%
03:00 +13°C° 0 mm 1 mps 720 mmHg 65%
04:00 +13°C° 0 mm 1 mps 720 mmHg 69%
05:00 +12°C° 0 mm 1 mps 720 mmHg 74%
06:00 +12°C° 0 mm 1 mps 720 mmHg 79%
07:00 +12°C° 0 mm 0 mps 721 mmHg 74%
08:00 +14°C° 0 mm 0 mps 721 mmHg 70%
09:00 +16°C° 0 mm 0 mps 722 mmHg 65%
10:00 +18°C° 0 mm 0 mps 722 mmHg 58%
11:00 +23°C° 0 mm 1 mps 722 mmHg 50%
12:00 +26°C° 0 mm 1 mps 722 mmHg 43%
13:00 +26°C° 0 mm 1 mps 721 mmHg 43%
14:00 +26°C° 0 mm 2 mps 720 mmHg 44%
15:00 +26°C° 0 mm 2 mps 720 mmHg 44%
16:00 +24°C° 0 mm 2 mps 719 mmHg 50%
17:00 +21°C° 0 mm 2 mps 719 mmHg 56%
18:00 +20°C° 0 mm 2 mps 719 mmHg 62%
19:00 +18°C° 0 mm 2 mps 720 mmHg 68%
20:00 +17°C° 0 mm 2 mps 720 mmHg 75%
21:00 +16°C° 0 mm 2 mps 720 mmHg 81%
22:00 +15°C° 0 mm 2 mps 720 mmHg 85%
23:00 +15°C° 0 mm 2 mps 720 mmHg 90%
Mostrar más

Necesitamos Su Consentimiento

Meteoprog y nuestros Proveedores de Servicios pueden almacenar y acceder a sus datos personales como cookies, identificadores de dispositivo u otras tecnologías similares de su dispositivo y procesar dichos datos para personalizar contenido y anuncios, además de ofrecer funciones de redes sociales y analizar el tráfico.

  • Almacenar y/o acceder a información en su dispositivo

    Se puede almacenar o acceder a cookies, identificadores de dispositivo u otra información de su dispositivo para los fines anteriormente indicados.

  • Anuncios y contenido personalizados, medición de anuncios y contenido, percepciones del público, y desarrollo de productos

    Los anuncios y el contenido pueden personalizarse en base a su perfil. Se pueden añadir más datos para personalizar mejor los anuncios y contenidos. Se puede medir el rendimiento de los anuncios y contenidos. Se puede obtener la percepción sobre el público que ha visto los anuncios y contenidos. Dichos datos pueden usarse para desarrollar o mejorar la experiencia del usuario, sistemas y software.

Al hacer clic en ‘Estoy De Acuerdo’ usted permitirá el uso de las cookies, identificadores de dispositivo, balizas web u otras tecnologías similares indicadas. Su configuración puede cambiarse desde el navegador de su dispositivo.

Para ciertos fines, los intereses legítimos pueden ser considerados por encima del consentimiento. Puede leer más sobre ello en nuestra Política de Privacidad y Cookies.